Hourly Data Report for October 10, 2019

All times are specified in Local Standard Time (LST). Add 1 hour to adjust for Daylight Saving Time where and when it is observed.

SEPT-ILES
QUEBEC
Current Station Operator: ECCC - MSC

50°13'00.000" N
66°15'00.000" W
52.60 m
7047914
71279
XZV

Download Data

Hourly Data (October 2019)
Hourly Data Report for October 10, 2019
TIME Temp Definition
°C
Dew Point Definition
°C
Rel Hum Definition
%
Wind Dir Definition
10's deg

Wind Spd Definition
km/h
Visibility Definition
km
Stn Press Definition
kPa
Hmdx Definition


Wind Chill Definition


Weather Definition


00:00 -1.2 -2.4 92 2 5   102.46   -3 LegendNANA
01:00 1.8 -0.4 85 34 8   102.44     LegendNANA
02:00 -0.6 -1.8 91 33 4   102.45   -2 LegendNANA
03:00 2.8 0.6 85 1 10   102.46     LegendNANA
04:00 2.7 0.3 84 1 7   102.50     LegendNANA
05:00 -0.4 -2.0 88 2 5   102.56   -2 LegendNANA
06:00 -0.1 -1.1 93 1 6   102.60   -2 LegendNANA
07:00 4.7 1.3 79 1 7   102.62     LegendNANA
08:00 8.1 2.4 67 35 5   102.64     LegendNANA
09:00 11.9 2.9 54 2 11   102.63     LegendNANA
10:00 14.1 3.1 48 13 5   102.60     LegendNANA
11:00 11.9 2.7 53 16 9   102.58     LegendNANA
12:00 11.0 2.3 55 16 9   102.54     LegendNANA
13:00 11.9 3.6 57 15 6   102.55     LegendNANA
14:00 11.8 3.9 58 23 6   102.54     LegendNANA
15:00 11.3 3.8 60 22 4   102.52     LegendNANA
16:00 10.0 3.0 62 21 2   102.53     LegendNANA
17:00 6.2 2.6 78 0 1   102.51     LegendNANA
18:00 3.4 0.5 81 35 3   102.49     LegendNANA
19:00 2.4 -0.1 84 35 2   102.49     LegendNANA
20:00 1.1 -0.8 87 18 3   102.55     LegendNANA
21:00 0.5 -1.2 88 32 3   102.55     LegendNANA
22:00 -0.9 -2.6 88   0   102.56     LegendNANA
23:00 -0.8 -2.1 90 36 6   102.55   -3 LegendNANA

Notes on Data Quality.

Legend

  • E = Estimated
  • M = Missing
  • NA = Not Available
Date modified: